STARLINK-37900

Last updated on Sun Aug 09 2026 00:02:04 GMT+0000 (Coordinated Universal Time)

1 69953U 26157L 26220.58335648 -.00002892 00000+0 -43954-4 0 9998 2 69953 53.1585 174.9258 0001102 100.9160 341.9772 15.49310695 6088
UTC large
Height (km)
Speed (km/s)
/
Latitude / Longitude
Inclination (degrees)
Orbital Period (minutes)
Azimuth
Elevation
Range (km)
Doppler Factor

Next 0 passes for location: London (51.5072 / 0.1276)

No passes found over London.
STARLINK-37900